User: anonymous   Login
Location: Columbia
(38.9520°N, 92.3340°W)
Time: 03:41:40
(UTC-05:00)
Language:

CZ-4B R/B - Orbit

View from above orbital plane
View from above orbital plane
View from above satellite
View from above satellite

Ground track
Ground track

The orbit data is extracted from the following two-line orbital elements,

1 29093U 06015B   16274.35768334  .00007943  00000-0  20080-3 0  9990
2 29093  97.4875  13.6559 0068127 169.5832 190.6843 15.37661366577578
Epoch (UTC): 30 September 2016 08:35:03
Eccentricity: 0.0068127
inclination: 97.4875°
perigee height: 406 km
apogee height: 499 km
right ascension of ascending node: 13.6559°
argument of perigee: 169.5832°
revolutions per day: 15.37661366
mean anomaly at epoch: 190.6843°
orbit number at epoch: 57757

The dashed part of the orbit path shows where the satellite is in the earth's shadow,  

DLR